Track IRIDIUM 160 now! 10-day predictions IRIDIUM 160 is classified as:
1 43569U 18061A 24326.05150510 .00000573 00000-0 19736-3 0 9991 2 43569 86.3933 296.2813 0002246 93.4702 266.6751 14.34218523331228